Powrót do katalogu

STARLINK-2738

AktywnyŁącznośćVLEO
NORAD 48668·PAYLOAD·🇺🇸 United States

Wystrzelony May 26, 2021 z Cape Canaveral Space Force Station

Loading…

Następne Przeloty (najbliższe 24 godziny)

TLE

ŚwieżeSource: CelesTrak SupGP

Epoka: Sep 14, 2026, 21:54 UTC

1 48668C 21044AG  26257.91298611  .00020432  00000+0  65732-3 0  2575
2 48668  53.1590 303.3487 0001165  76.3278 284.1972 15.31677935    12

Śledź STARLINK-2738 w czasie rzeczywistym z AllMySat

Download on the App Store